2021-091K (49324 NORAD) Tracking and Keplerian Element Data

This shows tracking and keplerian element data for the satellite.

Feedback or suggestion? Click here.




ElementValue
Catalog49324
Name2021-091K
Epoch Orbit3314
Epoch Day140.78690439
Epoch Year2022
RAAN328.4584
Inclination97.449
Eccentricity0.0014606
Argument of Perigee223.0775
Mean Anonmoly231.9426
Mean Motion15.20302484
Decay Rate9.695E-05
L11 49324U 21091K 22140.78690439 .00009695 00000+0 44791-3 0 9996
L22 49324 97.4490 328.4584 0014606 223.0775 231.9426 15.20302484 33141

Live tracking and technical data element details for 2021-091K (NORAD 49324). 2021-091K can be tracked NOW for your location showing map with azimuth and elevation plus other details from your city location.

Track the satellite on the map from your city or location and see movement details for azimuth, elevation, latitude, longitude, range, height, and movement on the map or in text.







IsCatalogInMostPopularTable: catalog: 49324, numindb: 28
Update: records affected: 1



GetName: 49324 2021-091K

Hit Count: updated at: Sun, 22 May 2022 06:47:22 GMT